Home   Weather   Brattleboro   Past weeks
Flag for USA

Past Weather in Brattleboro, Vermont, USA — Yesterday and Last 2 Weeks

Now
66 °F

Fog.


Feels Like: 66 °F
Forecast: 84 / 60 °F
Wind: No wind

Location: Keene / Dillant

Current Time: Jun 26, 2019 at 4:10:37 am

Latest Report: Jun 26, 2019 at 3:41 am


Visibility: 2 mi

Pressure: 29.96 "Hg

Humidity: 100%

Dew Point: 66 °F

Location of BrattleboroLocation

Past Weather in Brattleboro — Graph

°F

Brattleboro Temperature Yesterday

Maximum temperature yesterday: 70 °F (at 6:56 pm)
Minimum temperature yesterday: 56 °F (at 3:56 am)
Average temperature yesterday: 66 °F

High & Low Weather Summary for the Past Weeks

 TemperatureHumidityPressure
High83 °F (Jun 24, 3:56 pm)100% (Jun 11, 5:07 am)30.21 "Hg (Jun 11, 5:07 am)
Low43 °F (Jun 12, 5:39 am)29% (Jun 15, 3:56 pm)29.45 "Hg (Jun 20, 9:36 pm)
Average64 °F81%29.86 "Hg
* Reported Jun 11 3:56 am — Jun 26 3:03 am, Brattleboro. Weather by CustomWeather, © 2019

Note: Actual official high and low records may vary slightly from our data, if they occured in-between our weather recording intervals... More about our weather records

Advertising

Brattleboro Weather History for the Previous 24 Hours

Scroll right to see more
 ConditionsComfort  
Time TempWeatherWind HumidityBarometerVisibility
3:03 am
Wed, Jun 26
66 °FFog.No wind100%29.95 "Hg1 mi
2:37 am68 °FMostly cloudy.No wind94%29.95 "Hg10 mi
1:56 am68 °FLow clouds.No wind96%29.95 "Hg10 mi
12:56 am67 °FFog.No wind100%29.94 "Hg5 mi
12:24 am68 °FMostly cloudy.No wind94%29.93 "Hg8 mi
11:56 pm
Tue, Jun 25
68 °FLow clouds.No wind96%29.92 "Hg10 mi
11:35 pm68 °FLow clouds.No wind94%29.91 "Hg10 mi
11:14 pm68 °FMostly cloudy.No wind100%29.91 "Hg10 mi
11:03 pm68 °FMostly cloudy.No wind100%29.91 "Hg10 mi
10:04 pm68 °FMostly cloudy.No wind94%29.91 "Hg10 mi
9:39 pm66 °FFog.No wind100%29.90 "Hg3 mi
9:11 pm66 °FFog.No wind100%29.89 "Hg3 mi
8:56 pm68 °FFog.No wind96%29.88 "Hg6 mi
7:56 pm69 °FPassing clouds.No wind96%29.88 "Hg10 mi
7:40 pm70 °FScattered clouds.No wind94%29.87 "Hg10 mi
7:18 pm70 °FMostly cloudy.3 mph94%29.87 "Hg10 mi
6:56 pm70 °FLow clouds.3 mph93%29.87 "Hg10 mi
6:18 pm70 °FMostly cloudy.3 mph94%29.85 "Hg10 mi
5:56 pm69 °FMostly cloudy.3 mph93%29.85 "Hg10 mi
5:34 pm68 °FLight rain. More clouds than sun.3 mph94%29.84 "Hg7 mi
5:18 pm68 °FLight rain. Fog.3 mph100%29.84 "Hg2 mi
4:56 pm68 °FRain. Fog.No wind100%29.85 "Hg2 mi
4:31 pm70 °FLight rain. Fog.6 mph94%29.83 "Hg6 mi
4:20 pm70 °FLight rain. Overcast.3 mph94%29.83 "Hg7 mi
4:05 pm70 °FHeavy rain. Fog.No wind88%29.83 "Hg1 mi
3:56 pm69 °FHeavy rain. Fog.No wind93%29.84 "Hg2 mi
2:56 pm68 °FLight rain. Mostly cloudy.5 mph93%29.84 "Hg8 mi
1:56 pm69 °FOvercast.5 mph90%29.87 "Hg10 mi
12:56 pm67 °FMostly cloudy.No wind90%29.88 "Hg10 mi
12:14 pm66 °FOvercast.No wind94%29.87 "Hg10 mi
11:56 am67 °FLight rain. Overcast.5 mph90%29.87 "Hg10 mi
10:56 am65 °FRain. Fog.No wind91%29.89 "Hg4 mi
9:56 am67 °FMostly cloudy.No wind79%29.90 "Hg10 mi
8:56 am65 °FOvercast.No wind78%29.89 "Hg10 mi
7:56 am63 °FMostly cloudy.No wind81%29.89 "Hg10 mi
6:56 am60 °FPartly sunny.No wind90%29.89 "Hg10 mi
5:56 am57 °FScattered clouds.No wind93%29.89 "Hg10 mi
4:56 am56 °FClear.3 mph97%29.88 "Hg10 mi
Weather by CustomWeather, © 2019

See weather overview